Chetwynd Airport
CYCQ : now visible

Airfield :











YOU CAN JOIN US ON...

 
LOGIN :

Register | Disclaimer

   EN    FR    IT 

 









Legend :    VFR   Marginal VFR   IFR   Intensive IFR   Very Intensive IFR
Visi :
Ceiling :
>= 8 km
>= 3000ft
5 to 8 km
1000 to 3000 ft
1500m to 5 km
500 to 1000 ft
800 to 1500m
200 to 500 ft
< 800m
< 200 ft
Symbols :   Thunderstorms  Fog  Heavy snow  Heavy precipitations  Wind > 20 kt






- Airport Elevation : 2000 ft
- IATA code : YCQ


CYCQ - Chetwynd

CURRENT METAR :
  • 121700Z 26007KT 35SM FEW041 OVC110 OVC210 12/01 A3003 RMK SC2AC6CI1 CI TR VIRGA NW+SW SLP185

EXPIRED METARs :
  • 121600Z 24005KT 230V290 35SM FEW047 BKN110 BKN180 OVC200 10/01 A3004 RMK SC1AC5CS1CI1 ACSL SE VIRGA S-W SLP188
  • 121500Z 25006KT 35SM FEW045 BKN110 BKN180 OVC200 08/00 A3005 RMK SC2AC4CS1CI1 DIST PCPN NE VIRGA E SLP190

TAF N/A
CZEG FIR / North America



MET'MAP, your aeronautical weather chart ! - Copyright ORBIFLY December 2007 - Disclaimer

ORBIFLY MET'MAP TEAM :

Programming & Development : Alexandra Zaïnal
Concept & original design : Baudouin d'Aumeries
Assistance for programming : Marc-Olivier Méhu
Technical & hardware support : Manuel Goepfert

Contact : metmap@orbifly.com




SOURCES & CREDITS :

   NOAA       Earth
Advisory